Miscellaneous Local Product
Issued by NWS Hastings, NE

Home | Current Version | Previous Version | Text Only | Print | Product List | Glossary Off
Versions: 1 2 3 4 5 6 7 8 9 10 11 12 13 14 15 16 17 18 19 20 21 22 23 24 25 26 27 28 29 30 31 32 33 34 35 36 37 38 39 40 41 42 43 44 45 46 47 48 49 50

959
AXUS43 KGID 110702
MISGRI

GID CWA HOURLY WEATHER ROUNDUP
NATIONAL WEATHER SERVICE HASTINGS NE
100 AM CST THU FEB 11 2016

NOTE: "FAIR" INDICATES FEW OR NO CLOUDS BELOW 12,000 FEET WITH NO
SIGNIFICANT WEATHER AND/OR OBSTRUCTIONS TO VISIBILITY.

...SOUTH CENTRAL NEBRASKA...

CITY           SKY/WX    TMP DP  RH WIND       PRES   REMARKS
GRAND ISLAND   CLOUDY    27  24  89 NE7       30.16R WCI  19
HASTINGS       CLOUDY    28  24  85 N9        30.14R WCI  19
KEARNEY        CLOUDY    27  25  93 N8        30.15S WCI  18
ORD            CLOUDY    30  26  85 N10       30.15R WCI  21
YORK           CLOUDY    23  21  93 NE10      30.16S WCI  12
AURORA         CLOUDY    25  24  94 NE7       30.15S WCI  17
LEXINGTON      CLEAR     29  26  86 NE6       30.15R WCI  23
HOLDREGE       CLEAR     30  27  89 NE7       30.14R WCI  23
HEBRON         CLEAR     27  24  88 N6        30.15R WCI  21

...NEBRASKA PANHANDLE...

CITY           SKY/WX    TMP DP  RH WIND       PRES   REMARKS
CHADRON        CLEAR     27  23  85 CALM      30.13S
ALLIANCE       CLOUDY    24  22  91 W12       30.11F WCI  13
SCOTTSBLUFF    CLOUDY    30  24  78 NW6       30.15S WCI  24
SIDNEY         CLOUDY    34  25  69 W13       30.14F WCI  25

...WESTERN AND NORTH CENTRAL NEBRASKA...

CITY           SKY/WX    TMP DP  RH WIND       PRES   REMARKS
VALENTINE      CLOUDY    26  24  92 N9        30.17S WCI  17
AINSWORTH      CLOUDY    28  26  90 N12       30.17R WCI  18
ONEILL         CLOUDY    25  23  92 N3        30.18R
BROKEN BOW     CLOUDY    30  27  88 N12       30.15R WCI  20
IMPERIAL       CLOUDY    35  27  72 NW7       30.15S WCI  29
NORTH PLATTE   CLEAR     33  27  78 VRB5      30.14R WCI  29
MCCOOK         CLOUDY    35  28  75 N3        30.14R

...EASTERN NEBRASKA...

CITY           SKY/WX    TMP DP  RH WIND       PRES   REMARKS
NORFOLK        CLOUDY    22  17  81 N7        30.17S WCI  13
SO SIOUX CITY  CLOUDY    18  10  71 E7        30.24R WCI   9
TEKAMAH        CLOUDY    19  13  77 N9        30.21S WCI   8
COLUMBUS       CLOUDY    19  10  68 N5        30.18F WCI  13
ALBION         CLOUDY    23  19  85 N5        30.18R WCI  17
OMAHA EPPLEY   PTCLDY    19  13  77 NE6       30.20S WCI  11
MILLARD        CLEAR     21  16  81 CALM      30.20R
LINCOLN        CLOUDY    20  17  88 N7        30.20R WCI  11
NEBRASKA CITY  CLOUDY    24  21  91 NE13      30.17R WCI  12
BEATRICE       CLOUDY    26  23  91 NE9       30.16R WCI  16
FALLS CITY     CLEAR     27  21  78 NE9       30.16R WCI  18

...NORTHERN KANSAS...

CITY           SKY/WX    TMP DP  RH WIND       PRES   REMARKS
GOODLAND       CLEAR     34  26  72 NW9       30.15R WCI  27
HILL CITY      CLOUDY    34  29  82 N5        30.14R WCI  30
NORTON         SUNNY     34  27  75 N3        30.13
PHILLIPSBURG   CLEAR     36  28  75 N6        30.14S WCI  31
SMITH CENTER   CLEAR     30  27  86 N14G20    30.13R WCI  20
BELOIT         CLEAR     30  27  86 N12       30.13R WCI  21
HAYS           CLOUDY    39  25  56 NE12      30.10R WCI  32
RUSSELL        CLOUDY    38  32  79 N13       30.08R WCI  30
CONCORDIA      CLEAR     30  25  81 N12       30.12R WCI  20
SALINA         CLOUDY    33  27  78 N9        30.09R WCI  25
TOPEKA         CLEAR     29  22  75 NE14      30.11R WCI  18



USA.gov is the U.S. government's official web portal to all federal, state and local government web resources and services.